Location: Clyde
(45.1830°S, 169.3170°E)
Time: 04:00:26
(UTC+13:00)

Resurs 01 Rocket - Pass Details

Date: 24 January 2019
Orbit: 635 x 643 km, 98.1° (Epoch: 22 February)

Event Time Altitude Azimuth Distance (km) Brightness Sun altitude
Rises 23:11:24 0° 171° (S) 2,983 5.7 -15.7°
Reaches altitude 10° 23:13:39 10° 174° (S) 2,065 4.9 -15.9°
Maximum altitude 23:18:04 59° 252° (WSW) 748 2.2 -16.4°
Drops below altitude 10° 23:22:26 10° 331° (NNW) 2,034 4.0 -16.9°
Enters shadow 23:23:17 - 333° (NNW) 2,381 4.3 -17.0°
